Regional Weather Roundup
Issued by NWS Burlington, VT

Home | Current Version | Previous Version | Text Only | Print | Product List | Glossary On
Versions: 1 2 3 4 5 6 7 8 9 10 11 12 13 14 15 16 17 18 19 20 21 22 23 24 25 26 27 28 29 30 31 32 33 34 35 36 37 38 39 40 41 42 43 44 45 46 47 48 49 50
000
ASUS41 KBTV 271030
RWRBTV
VERMONT REGIONAL WEATHER ROUNDUP
NATIONAL WEATHER SERVICE BURLINGTON VT
500 AM EST SAT DEC 27 2014

NOTE: "FAIR" INDICATES FEW OR NO CLOUDS BELOW 12,000 FEET WITH NO
SIGNIFICANT WEATHER AND/OR OBSTRUCTIONS TO VISIBILITY.

* THESE REPORTS ARE NOT UNDER NWS QUALITY CONTROL AND/OR DO NOT
  REPORT WEATHER SUCH AS PRECIPITATION AND FOG.

VTZ001>019-271100-
_____VERMONT_____


CITY           SKY/WX    TMP DP  RH WIND       PRES   REMARKS
BURLINGTON     CLOUDY    39  29  67 CALM      30.13R
MONTPELIER     CLOUDY    35  29  78 NW5       30.13R
MORRISVILLE    MOSUNNY   40  29  64 NW7       30.12R
ST. JOHNSBURY*   N/A     33  29  85 MISG      30.10R
LYNDONVILLE*   CLOUDY    37  29  71 W3        30.10S
MIDDLEBURY*    PTSUNNY   32  32 100 CALM      30.14R
RUTLAND*       CLOUDY    39  27  60 S5        30.13R
SPRINGFIELD    PTSUNNY   30  28  92 CALM      30.13S FOG
HIGHGATE*      CLOUDY    32  29  90 CALM      30.14R
NEWPORT*       CLOUDY    37  30  77 W7        30.11R
BENNINGTON     CLOUDY    29  27  92 CALM      30.16R
SUTTON*          N/A     34 N/A N/A MISG        N/A
MT. MANSFIELD*   N/A     28 N/A N/A CALM        N/A

_____LAKE CHAMPLAIN_____


CITY           SKY/WX    TMP DP  RH WIND       PRES   REMARKS
BURTON ISLAND*   N/A     39  32  75 S6          N/A
COLCHESTER RF*   N/A     41  32  70 SW9         N/A

$$

NYZ007-026>031-035-052-083-271100-
_____NORTHERN NEW YORK_____


CITY           SKY/WX    TMP DP  RH WIND       PRES   REMARKS
PLATTSBURGH    CLOUDY    35  31  85 CALM      30.13R
SARANAC LAKE   CLOUDY    35  30  82 SW5       30.08R
MASSENA        CLOUDY    37  32  82 SW5       30.15R
POTSDAM*       CLOUDY    39  36  87 SW8       30.14R
WATERTOWN      CLOUDY    42  33  70 SW5       30.16R
FT DRUM        CLOUDY    39  30  70 W6        30.14R
ALBANY         CLOUDY    31  27  85 CALM      30.18F
GLENS FALLS    CLOUDY    32  28  85 CALM      30.17R

$$
NHZ002-005-011-271100-
_____NEW HAMPSHIRE_____


CITY           SKY/WX    TMP DP  RH WIND       PRES   REMARKS
LEBANON        SUNNY     29  26  89 CALM      30.12R
KEENE          CLOUDY    28  27  93 CALM      30.15R
MT WASHINGTON  FOG       18  18 100 NW58G63     N/A  VSB 0   WCI  -7
PLYMOUTH       CLOUDY    33  32  97 W7        30.10R
WHITEFIELD     CLOUDY    35  29  78 W5        30.09R

$$

_____REGIONAL QUEBEC LOCATIONS_____


CITY           SKY/WX    TMP DP  RH WIND       PRES   REMARKS
MONTREAL       CLOUDY    34  32  93 CALM      30.13R
QUEBEC CITY    CLOUDY    34  32  93 SW10      30.04R
SHERBROOKE     MOSUNNY   34  32  93 W8        30.07R

_____REGIONAL ONTARIO LOCATIONS_____


CITY           SKY/WX    TMP DP  RH WIND       PRES   REMARKS
OTTAWA         CLOUDY    36  32  87 SW3       30.14R

______KEY______
VSB  - VISIBILITY IN MILES
WCI  - WIND CHILL INDEX
HX   - HEAT INDEX
$$
NNNN


USA.gov is the U.S. government's official web portal to all federal, state and local government web resources and services.